Location: Aytr�
(46.1357°N, 1.1145°W)
Time: 09:05:22
(UTC+00:00)

ISS - Pass Details

Date: 24 September 2021
Orbit: 417 x 423 km, 51.6° (Epoch: 20 October)

Event Time Altitude Azimuth Distance (km) Brightness Sun altitude
Rises 19:02:23 0° 274° (W) 2,360 2.1 -11.9°
Reaches altitude 10° 19:04:36 10° 284° (WNW) 1,498 0.6 -12.3°
Maximum altitude 19:07:42 33° 351° (N) 725 -2.4 -12.8°
Enters shadow 19:10:13 14° 53° (NE) 1,293 -1.7 -13.3°
